Regional Weather Roundup
Issued by NWS Charleston, SC

Current Version | Previous Version | Graphics & Text | Print | Product List | Glossary On
Versions: 1 2 3 4 5 6 7 8 9 10 11 12 13 14 15 16 17 18 19 20 21 22 23 24 25 26 27 28 29 30 31 32 33 34 35 36 37 38 39 40 41 42 43 44 45 46 47 48 49 50
000
ASUS42 KCHS 280612
RWRCHS

REGIONAL WEATHER ROUNDUP
NATIONAL WEATHER SERVICE CHARLESTON SC
200 AM EDT THU MAY 28 2015

NOTE: "FAIR" INDICATES FEW OR NO CLOUDS BELOW 12,000 FEET WITH NO
SIGNIFICANT WEATHER AND/OR OBSTRUCTIONS TO VISIBILITY.

NOT ALL STATIONS ARE QUALITY CONTROLLED BY THE NATIONAL
WEATHER SERVICE. USE DATA WITH CAUTION...ESPECIALLY
DEWPOINT OBSERVATIONS.

SCZ027-030-031-034>040-042>050-280700-
...SOUTHEAST SOUTH CAROLINA...

CITY           SKY/WX    TMP DP  RH WIND       PRES   REMARKS
N CHARLESTON   CLEAR     70  67  90 CALM      30.20F
6HR MIN TEMP:  70; 6HR MAX TEMP:  77;

WATERFRONT PAR   N/A     76  70  81 VRB2      30.17F
MOUNT PLEASANT FAIR      70  66  88 CALM      30.20F
JOHNS ISLAND   PTCLDY    70  66  88 CALM      30.21S
PINOPOLIS        N/A     73  68  83 CALM      30.12F
MONCKS CORNER  FAIR      68  66  94 CALM      30.20F
SUMMERVILLE    FAIR      68  68 100 CALM      30.21F
BEAUFORT MCAS  PTCLDY    72  69  90 CALM      30.19F
6HR MIN TEMP:  69; 6HR MAX TEMP:  80;

BEAUFORT ARPT  FAIR      70  70 100 CALM      30.19F
HILTON HEAD IS PTCLDY    72  68  88 CALM      30.21F
WALTERBORO     CLEAR     64  64 100 CALM      30.21F
ALLENDALE      FAIR      68  68 100 CALM      30.20S FOG

...SOUTHERN MIDLANDS AND PEE DEE...

CITY           SKY/WX    TMP DP  RH WIND       PRES   REMARKS
GEORGETOWN     NOT AVBL
KINGSTREE      NOT AVBL
ORANGEBURG     CLEAR     67  65  93 CALM      30.21F
6HR MIN TEMP:  67; 6HR MAX TEMP:  75;

BARNWELL       FAIR      70  66  88 CALM      30.21F
AIKEN          FAIR      70  63  78 CALM      30.24F
MANNING        FAIR      66  64  94 CALM      30.21F FOG
COLUMBIA       PTCLDY    70  66  87 CALM      30.20F
6HR MIN TEMP:  70; 6HR MAX TEMP:  79;

SUMTER         CLEAR     70  69  94 SW1       30.19F
6HR MIN TEMP:  70; 6HR MAX TEMP:  75;

FLORENCE       CLOUDY    71  69  93 SE3       30.21F
6HR MIN TEMP:  71; 6HR MAX TEMP:  76;

MYRTLE BEACH   MOCLDY    75  66  73 S6        30.24F
N MYRTLE BEACH PTCLDY    74  67  78 S6        30.21F
6HR MIN TEMP:  74; 6HR MAX TEMP:  77;


$$

GAZ063-065-086>088-099>101-113>116-118-119-134>141-150-280700-
...SOUTHEAST GEORGIA...

CITY           SKY/WX    TMP DP  RH WIND       PRES   REMARKS
SAVANNAH ARPT  CLEAR     68  65  90 CALM      30.20F
6HR MIN TEMP:  68; 6HR MAX TEMP:  78;

HUNTER AAF     CLEAR     69  67  96 CALM      30.17F
6HR MIN TEMP:  68; 6HR MAX TEMP:  78;

FORT STEWART   CLEAR     66  64  91 CALM      30.17F
6HR MIN TEMP:  66; 6HR MAX TEMP:  78;

STATESBORO     CLEAR     66  50  56 CALM      30.20F
SYLVANIA       CLEAR     67  67 100 CALM      30.21F
CLAXTON        FAIR      64  64 100 CALM      30.20S

...CSRA...CENTRAL AND FAR SOUTHEAST GEORGIA...

CITY           SKY/WX    TMP DP  RH WIND       PRES   REMARKS
THOMSON        PTCLDY    71  71 100 CALM      30.24F
AUGUSTA-BUSH   PTCLDY    70  67  90 CALM      30.19F
6HR MIN TEMP:  69; 6HR MAX TEMP:  79;

AUGUSTA-DANIEL CLOUDY    75  65  70 S3        30.21S
SWAINSBORO     FAIR      72  72 100 SE3       30.20F
VIDALIA        PTCLDY    68  66  94 CALM      30.19F
EASTMAN        FAIR      73  72  99 S3        30.21F
HAZLEHURST     FAIR      69  68  96 CALM      30.18F
ALMA           PTCLDY    66  64  93 CALM      30.18F
6HR MIN TEMP:  66; 6HR MAX TEMP:  80;

WAYCROSS       PTCLDY    69  68  94 CALM      30.18S
JESUP          FAIR      68  66  94 CALM      30.19S
BAXLEY         FAIR      68  66  94 CALM      30.18F
BRUNSWICK        N/A     68  64  88 CALM      30.18F
SAINT SIMONS   NOT AVBL

$$

SCZ027-028-034-036>038-045-046-048>050-GAZ119-141-280700-
...LAKE AND SUPPLEMENTAL COASTAL OBSERVATIONS...

STATION/POSITION TIME  TEMP    WIND        PRES    WAVE   SWELL
                       AIR SEA DIR/SP/G            HT/PER HT/PER/DIR
                 (UTC) (F)     (DEG/KT/KT) (MB)    (FT/S) (FT/S/D)
UPR LAKE MARION  NOT AVBL
WINYAH BAY       NOT AVBL
LAKE MURRAY      0500   74     170/  3/  5 1022.7S
ACE BASIN NERRS  NOT AVBL
FORT PULASKI     0500   74 79   CALM  /  1 1023.2S
SAPELO ISLAND    0500   74     130/  4     1022.0S

$$

ANZ835-935-AMZ111-154-330-350-352-354-370-450-454-472-280700-
...C-MAN AND BUOY OBSERVATIONS...

STATION/POSITION TIME  TEMP    WIND        PRES    WAVE   SWELL
                       AIR SEA DIR/SP/G            HT/PER HT/PER/DIR
                 (UTC) (F)     (DEG/KT/KT) (MB)    (FT/S) (FT/S/D)
BUOY 41004       0550   76 78  100/  6/  8 1022.2F   3/ 7   3/ 7
BUOY 41008       0550   77 78  150/  6/ 10 1022.2S   3/ 8   2/110/ 8
FOLLY BEACH CMAN 0600   77     180/  4/  5 1022.8F
CAPERS NEARSHORE 0508   77     140/  8/ 10 1023.0F
FRIPP NEARSHORE  NOT AVBL


STATION/POSITION TIME  TEMP    WIND        PRES    WAVE   SWELL
                       AIR SEA DIR/SP/G            HT/PER HT/PER/DIR
                 (UTC) (F)     (DEG/KT/KT) (MB)    (FT/S) (FT/S/D)
5E ST. MARYS GA  0521      79                N/A     3/ 7
FRYING PAN BUOY  0550   76 75  150/  6/  8 1023.9F   3/ 8   3/110/ 8
BUOY 41025       0550   74 77  180/ 10/ 12 1024.1F   3/ 7   3/120/ 7
CAPE LOOKOUT NC  0600   72     190/  5/  6 1023.6F
BUOY 41002       0550   73 74   90/ 14/ 16 1023.3F   5/ 8   3/110/ 8
BUOY 41010       0520   77 80   80/ 14/ 16 1021.3F
ST AUGUSTINE FL  0600   77 79  130/ 10/ 12 1021.8F


$$


USA.gov is the U.S. government's official web portal to all federal, state and local government web resources and services.